Location: Dillon
(41.1766°N, 107.0923°W)
Time: 17:43:50
(UTC+00:00)

FALCONSAT 3 - Pass Details

Date: 02 July 2022
Orbit: 394 x 399 km, 35.4° (Epoch: 09 August)

Event Time Altitude Azimuth Distance (km) Brightness Sun altitude
Rises 04:05:13 0° 239° (WSW) 2,332 ? -12.5°
Reaches altitude 10° 04:07:34 10° 225° (SW) 1,469 ? -12.8°
Maximum altitude 04:10:20 24° 169° (S) 883 ? -13.2°
Enters shadow 04:10:43 24° 157° (SSE) 898 ? -13.2°
